Regional Weather Roundup
Issued by NWS Charleston, WV

Home | Current Version | Previous Version | Graphics & Text | Print | Product List | Glossary On
Versions: 1 2 3 4 5 6 7 8 9 10 11 12 13 14 15 16 17 18 19 20 21 22 23 24 25 26 27 28 29 30 31 32 33 34 35 36 37 38 39 40 41 42 43 44 45 46 47 48 49 50
947
ASUS41 KRLX 190510
RWRRLX
West Virginia Regional Weather Roundup
National Weather Service Charleston WV
1200 AM EST MON FEB 19 2018

Note: "fair" indicates few or no clouds below 12,000 feet with no
significant weather and/or obstructions to visibility.

WVZ003-190600-
Northern Panhandle of West Virginia

CITY           SKY/WX    TMP DP  RH WIND       PRES   REMARKS
WHEELING         N/A     33  26  75 SE8       30.19F
$$

WVZ009-190600-
Northwest West Virginia

CITY           SKY/WX    TMP DP  RH WIND       PRES   REMARKS
PARKERSBURG      N/A     34  29  82 E5        30.20F
$$

WVZ006-190600-
Western West Virginia

CITY           SKY/WX    TMP DP  RH WIND       PRES   REMARKS
HUNTINGTON       N/A     37  32  82 E3        30.16S
$$

WVZ015-190600-
West Central West Virginia

CITY           SKY/WX    TMP DP  RH WIND       PRES   REMARKS
CHARLESTON       N/A     37  33  85 CALM      30.17F
$$

WVZ022-031-190600-
North Central West Virginia

CITY           SKY/WX    TMP DP  RH WIND       PRES   REMARKS
CLARKSBURG       N/A     33  28  81 CALM      30.21F
MORGANTOWN       N/A     41  27  57 SE12      30.21F
$$

WVZ025-035-042-045-190600-
Southern West Virginia

CITY           SKY/WX    TMP DP  RH WIND       PRES   REMARKS
BECKLEY          N/A     44  27  51 SE16G25   30.25F
LOGAN            N/A     52  30  43 VRB6G21   30.19S
BLUEFIELD        N/A     45  26  47 SE16G24   30.29S
LEWISBURG        N/A     33  28  82 NE3       30.34S
$$

WVZ047-190600-
Northern Mountains of West Virginia

CITY           SKY/WX    TMP DP  RH WIND       PRES   REMARKS
ELKINS           N/A     43  27  53 S9        30.26S
$$

WVZ052-190600-
Eastern Panhandle of West Virginia

CITY           SKY/WX    TMP DP  RH WIND       PRES   REMARKS
MARTINSBURG      N/A     34  27  75 SE5       30.42S
PETERSBURG       N/A     29  28  94 CALM      30.37S
$$




USA.gov is the U.S. government's official web portal to all federal, state and local government web resources and services.